[[{"header":{"parameterUnit":"m.s-1","parameterCategory":2,"la1":30.2991,"la2":30.254,"lo1":-89.0895,"lo2":-89.0444,"dy":0.0017,"dx":0.0017,"nx":28,"ny":28,"refTime":"2024-07-14T03:00:00:Z","depth":"0","parameterNumber":2,"parameterNumberName":"U-component_of_CURRENTS"},"data":[0,0,0,0,0,0,0,0,0,0,0,0,0,0,0,0,0,0,0,0,0,0,0,0,0,0,0,0,0,0,0,0,0,0,0,0,0,0,0,0,0,0,0,0,0,0,0,0,0,0,0,0,0,0,0,0,0,0,0.169,0.169,0,0.1689,0.1688,0.1688,0.1668,0.1667,0.1667,0.1667,0.1671,0.1672,0.1672,0,0,0,0,0,0,0,0,0,0,0,0,0,0.1687,0.1687,0.169,0.169,0.169,0.1689,0.1688,0.1688,0.1668,0.1667,0.1667,0.1667,0.1671,0.1672,0.1672,0,0,0,0,0,0,0,0,0,0,0,0,0,0.1685,0.1687,0.169,0.1681,0.1681,0.1689,0.1688,0.1688,0.1668,0.1667,0.1667,0.1666,0.1671,0.1672,0.1672,0.1687,0,0,0.1674,0.1674,0,0,0,0,0,0,0,0,0.1685,0.1685,0.1682,0.1682,0.1681,0.168,0.1689,0.1689,0.1668,0.1671,0.1667,0.1666,0.1676,0.1676,0.1674,0.1687,0.1687,0.1674,0.1675,0.1675,0.1675,0,0,0,0,0,0,0,0.1685,0.1685,0.1687,0.1683,0.1682,0.1682,0.1681,0.1689,0.1675,0.167,0.1669,0.1673,0.1676,0.1674,0.1674,0.1687,0.1674,0.1675,0.1675,0.1675,0.1759,0.1761,0,0,0,0,0,0,0.169,0.1685,0.1687,0.1687,0.1684,0.1682,0.1681,0.1679,0.1675,0.1674,0.1673,0.1672,0.1673,0.1674,0.1675,0.1744,0.1675,0.1676,0.1676,0.1757,0.176,0.1762,0,0,0,0,0,0,0.1689,0.169,0.1687,0.1688,0.1688,0.1683,0.1681,0.1679,0.1683,0.1677,0.1676,0.168,0.1673,0.1674,0.1704,0.1742,0.1676,0.1676,0.1755,0.1758,0.1761,0.185,0,0,0,0,0,0,0.1689,0.1689,0.1691,0.1688,0.1688,0.1699,0.1682,0.168,0.1687,0.1685,0.1682,0.1682,0.1672,0.1703,0.1705,0.1742,0.1677,0.1753,0.1757,0.176,0.1845,0.1855,0.1864,0,0,0,0,0,0.1689,0.1691,0.1691,0.1691,0.169,0.17,0.17,0.1693,0.1688,0.1694,0.1704,0.1682,0.1726,0.1705,0.1707,0.1745,0.1751,0.1756,0.1759,0.184,0.1853,0.1864,0,0,0,0,0,0,0.169,0.1689,0.1689,0.169,0.1699,0.1697,0.17,0.1701,0.1713,0.1712,0.1706,0.1707,0.1749,0.1735,0.1713,0.1779,0.1735,0.1739,0.1796,0.1808,0.1818,0.1833,0.1677,0,0,0,0,0,0.1693,0.1692,0.1698,0.1701,0.1705,0.1706,0.171,0.1709,0.1718,0.1722,0.1725,0.1736,0.1766,0.1777,0.1788,0.1824,0.1857,0.1849,0.1859,0.1868,0.1882,0.1972,0.1992,0.1775,0.1775,0.1775,0,0,0.1694,0.1694,0.1694,0.1701,0.1704,0.1725,0.1707,0.1716,0.1743,0.1722,0.1758,0.177,0.1784,0.1829,0.1845,0.1822,0.1952,0.1873,0.1881,0.189,0.1979,0.2,0.2019,0.1778,0.1777,0.1777,0,0,0.1702,0.1698,0.1704,0.1715,0.1727,0.1737,0.1745,0.1753,0.1764,0.1803,0.1805,0.1848,0.1868,0.1901,0.1919,0.1992,0.2002,0.1987,0.2052,0.2139,0.2158,0.2175,0.2267,0.2291,0.1992,0.1992,0.1992,0,0.171,0.1716,0.171,0.1726,0.1745,0.1748,0.1776,0.1792,0.1813,0.1845,0.1823,0.191,0.1912,0.2003,0.2026,0.2018,0.2067,0.2005,0.2154,0.2172,0.2188,0.2277,0.2303,0.1997,0.1996,0.1995,0.1995,0,0.1724,0.1737,0.1743,0.177,0.1792,0.1812,0.1841,0.1867,0.1886,0.1915,0.1997,0.2016,0.2073,0.2081,0.2076,0.2193,0.2194,0.2159,0.2127,0.2215,0.2304,0.2329,0.2003,0.2002,0.2,0.1999,0,0,0.1733,0.1751,0.1757,0.1778,0.1818,0.1837,0.1895,0.1959,0.2016,0.2046,0.2134,0.2189,0.2206,0.2229,0.2236,0.2303,0.2459,0.2281,0.2284,0.2378,0.2672,0.2728,0.276,0.2454,0.2458,0.2462,0.2697,0,0.1756,0.1784,0.1799,0.1852,0.1876,0.191,0.1969,0.2029,0.2085,0.2167,0.2219,0.2294,0.2262,0.2299,0.2372,0.2434,0.2527,0.24,0.2567,0.2572,0.2616,0.2792,0.2811,0.3028,0.2722,0.2726,0.2729,0,0.1777,0.1793,0.1834,0.1897,0.1913,0.1952,0.2057,0.2112,0.223,0.2279,0.2373,0.2407,0.2528,0.2471,0.2661,0.2584,0.2646,0.2686,0.2696,0.2733,0.2676,0.2885,0.3085,0.2899,0.2768,0.2765,0.2762,0,0.1783,0.183,0.1862,0.188,0.1946,0.1985,0.2037,0.2147,0.2208,0.2358,0.2417,0.2562,0.2634,0.2739,0.2823,0.276,0.3028,0.2948,0.3065,0.3069,0.3113,0.3114,0.3159,0.3102,0.3102,0.3101,0.3101,0,0.1807,0.1836,0.1861,0.1877,0.1935,0.199,0.2079,0.2157,0.2279,0.2377,0.247,0.2577,0.2702,0.2846,0.2909,0.3101,0.3113,0.3138,0.3159,0.3146,0.3147,0.3003,0.2891,0.311,0.3108,0.3106,0.3105,0,0.1811,0.1827,0.186,0.1913,0.1933,0.1974,0.2068,0.2135,0.2256,0.239,0.2436,0.2628,0.285,0.2978,0.3184,0.3224,0.3299,0.3429,0.3414,0.3429,0.3346,0.324,0.3236,0.3149,0.3624,0.3627,0.363,0,0.1812,0.1824,0.1861,0.1872,0.1892,0.1951,0.1995,0.2114,0.219,0.2421,0.2486,0.2735,0.2909,0.3256,0.3437,0.3645,0.3433,0.3736,0.3616,0.3407,0.3303,0.3078,0.2985,0.3718,0.3721,0.3724,0.3726,0,0.1803,0.1809,0.1822,0.1838,0.1868,0.1918,0.1992,0.2044,0.2209,0.232,0.2528,0.2688,0.309,0.334,0.3631,0.3763,0.3553,0.3795,0.3593,0.3424,0.3171,0.3074,0.3475,0.3749,0.3746,0.3745,0.3743,0.3743,0.1778,0.1772,0.177,0.1788,0.1822,0.1869,0.19,0.2001,0.211,0.2291,0.2496,0.2721,0.3134,0.3577,0.3696,0.3865,0.3714,0.3776,0.3686,0.3489,0.334,0.3802,0.407,0.4069,0.4069,0.4069,0.4068,0,0.1711,0.1704,0.172,0.1727,0.1738,0.1788,0.1878,0.1916,0.2016,0.2232,0.2413,0.2805,0.3126,0.345,0.3785,0.3719,0.357,0.3612,0.3273,0.3202,0.3667,0.3601,0.3761,0.3761,0.3761,0.3762,0.3762,0.3762,0.1669,0.1638,0.1642,0.1624,0.1643,0.1666,0.1707,0.1795,0.1933,0.2152,0.2348,0.2565,0.2947,0.3292,0.3415,0.3433,0.3103,0.3062,0.2888,0.317,0.3173,0.3177,0.3085,0.3134,0.3133,0.2363,0.2357,0.2352]},{"header":{"parameterUnit":"m.s-1","parameterCategory":2,"la1":30.2991,"la2":30.254,"lo1":-89.0895,"lo2":-89.0444,"dy":0.0017,"dx":0.0017,"nx":28,"ny":28,"refTime":"2024-07-14T03:00:00:Z","depth":"0","parameterNumber":3,"parameterNumberName":"V-component_of_CURRENTS"},"data":[0,0,0,0,0,0,0,0,0,0,0,0,0,0,0,0,0,0,0,0,0,0,0,0,0,0,0,0,0,0,0,0,0,0,0,0,0,0,0,0,0,0,0,0,0,0,0,0,0,0,0,0,0,0,0,0,0,0,0.0222,0.0222,0,0.0192,0.0192,0.0191,0.0164,0.0164,0.0164,0.0164,0.0063,0.006,0.0058,0,0,0,0,0,0,0,0,0,0,0,0,0,0.0243,0.0243,0.0222,0.0222,0.0221,0.0192,0.0192,0.0191,0.0164,0.0164,0.0164,0.0163,0.0063,0.0061,0.0058,0,0,0,0,0,0,0,0,0,0,0,0,0,0.0226,0.0243,0.0222,0.0205,0.0203,0.0192,0.0192,0.0191,0.0165,0.0164,0.0164,0.0163,0.0064,0.0061,0.0057,0.0044,0,0,0.0046,0.0045,0,0,0,0,0,0,0,0,0.0227,0.0225,0.0207,0.0206,0.0204,0.0182,0.0162,0.0138,0.0165,0.0179,0.0164,0.0163,0.0096,0.009,0.0086,0.0039,0.0034,0.0046,0.0044,0.0042,0.0041,0,0,0,0,0,0,0,0.0228,0.0226,0.021,0.0207,0.0205,0.0194,0.0191,0.0158,0.0139,0.0177,0.0175,0.0173,0.0095,0.009,0.0083,0.0033,0.0046,0.0043,0.004,0.0039,-0.0048,-0.0049,0,0,0,0,0,0,0.0234,0.0227,0.0211,0.0209,0.0215,0.0194,0.0191,0.0189,0.0141,0.0133,0.0173,0.0172,0.0096,0.0088,0.0079,0.0071,0.0042,0.0039,0.0037,-0.0048,-0.0048,-0.0049,0,0,0,0,0,0,0.0234,0.0232,0.0212,0.0218,0.0214,0.0195,0.0192,0.0189,0.0183,0.0138,0.013,0.0172,0.0095,0.0085,0.0056,0.0066,0.0037,0.0034,-0.0048,-0.0048,-0.0049,0.0047,0,0,0,0,0,0,0.0235,0.0233,0.0236,0.0218,0.0214,0.0214,0.0193,0.0188,0.0183,0.018,0.0134,0.0124,0.0094,0.0062,0.0053,0.0061,0.0031,-0.0048,-0.0048,-0.0048,0.0044,0.005,0.0055,0,0,0,0,0,0.0236,0.0243,0.0236,0.0234,0.0218,0.0215,0.0212,0.0196,0.0183,0.0188,0.0156,0.0126,0.0053,0.006,0.0049,0.0056,-0.0048,-0.0048,-0.0048,0.0041,0.0049,0.0055,0,0,0,0,0,0,0.0254,0.0241,0.0232,0.0235,0.0229,0.0211,0.0211,0.02,0.0179,0.0173,0.0129,0.0118,0.0096,0.0058,0.0066,0.0026,-0.0005,-0.0007,0.0067,0.0074,0.0079,0.011,0.0028,0,0,0,0,0,0.026,0.0264,0.0248,0.0253,0.0248,0.023,0.0226,0.0217,0.0196,0.0187,0.0157,0.0117,0.0086,0.0067,0.0033,0.0014,-0.0019,0.0007,0.0013,0.0018,0.0033,-0.0015,-0.0011,-0.005,-0.005,-0.005,0,0,0.0271,0.0263,0.0266,0.0258,0.0247,0.0256,0.0226,0.0225,0.0235,0.0177,0.0176,0.0137,0.0084,0.0068,0.0053,0.0038,0.0012,0.0017,0.0023,0.0035,-0.0015,-0.0011,-0.0007,-0.005,-0.005,-0.005,0,0,0.0299,0.0283,0.0299,0.0294,0.0284,0.0276,0.0278,0.0262,0.0255,0.0249,0.0208,0.0182,0.0133,0.0106,0.0083,0.0096,0.0044,0.0073,0.0128,0.0082,0.0085,0.0088,0.0061,0.006,0.0075,0.0075,0.0076,0,0.0309,0.0328,0.0304,0.0315,0.0322,0.0289,0.0313,0.03,0.0281,0.028,0.0259,0.0201,0.0157,0.014,0.0145,0.0112,0.0079,0.0113,0.0092,0.0093,0.0094,0.0066,0.0064,0.008,0.008,0.0079,0.0079,0,0.035,0.0364,0.037,0.0378,0.0383,0.0394,0.0378,0.0376,0.0361,0.0353,0.0335,0.028,0.0248,0.0224,0.0191,0.0175,0.0149,0.0108,0.0084,0.0105,0.0073,0.0069,0.0087,0.0085,0.0084,0.0082,0,0,0.0367,0.0396,0.0397,0.0422,0.0418,0.043,0.044,0.0448,0.0466,0.043,0.0448,0.0391,0.036,0.0331,0.0278,0.0241,0.0221,0.0185,0.0181,0.0176,0.0131,0.013,0.0126,0.0173,0.0173,0.0172,0.011,0,0.0405,0.0458,0.0459,0.0511,0.0538,0.0517,0.0537,0.0536,0.053,0.0535,0.0473,0.0464,0.0398,0.0387,0.034,0.0253,0.0214,0.0243,0.0096,0.0093,0.0103,0.0122,0.0151,0.0099,0.0106,0.0106,0.0105,0,0.0441,0.0476,0.054,0.0592,0.06,0.0627,0.0659,0.0673,0.066,0.0654,0.0628,0.0576,0.0526,0.0461,0.0333,0.0352,0.0254,0.0181,0.0176,0.0143,0.0086,0.0074,0.0092,-0.0069,0.0099,0.01,0.01,0,0.0476,0.0532,0.0594,0.0606,0.0652,0.068,0.0704,0.0713,0.0738,0.0732,0.0745,0.067,0.0642,0.051,0.0364,0.0342,0.0224,0.0166,0.0074,0.0073,0.0053,0.0052,-0.0085,0.007,0.007,0.007,0.0071,0,0.0515,0.0562,0.0618,0.0648,0.0725,0.0736,0.0807,0.0817,0.084,0.0886,0.0809,0.0825,0.065,0.0558,0.0404,0.0247,0.0248,0.0099,0.0059,0.0088,0.009,-0.0088,-0.0174,0.0068,0.0069,0.0069,0.007,0,0.0546,0.0579,0.0652,0.0717,0.0746,0.08,0.0878,0.0925,0.0936,0.0992,0.0991,0.094,0.0836,0.0658,0.0464,0.0315,0.0077,0.0089,0.0151,0.012,-0.0118,-0.0199,-0.0336,-0.0384,-0.0022,-0.0022,-0.0022,0,0.0571,0.0613,0.0702,0.0753,0.0791,0.087,0.0927,0.097,0.1027,0.1068,0.1102,0.1032,0.1011,0.0744,0.0469,0.0215,0.0077,0.0072,0.0028,-0.0113,-0.0234,-0.027,-0.0303,0.0038,0.0038,0.0038,0.0038,0,0.062,0.0648,0.0706,0.0809,0.0887,0.0977,0.1066,0.1125,0.1179,0.1224,0.1284,0.1275,0.1043,0.0829,0.0495,0.0303,-0.0008,0.0068,-0.0106,-0.021,-0.0232,-0.0302,0.0068,0.004,0.004,0.004,0.004,0.004,0.0652,0.0702,0.0779,0.0878,0.0969,0.1086,0.1165,0.1256,0.1356,0.146,0.1442,0.1475,0.1176,0.0731,0.0447,-0.0032,-0.0035,-0.0172,-0.026,-0.0285,-0.0325,0.0067,0.0009,0.0008,0.0008,0.0008,0.0008,0,0.0696,0.0758,0.0849,0.0973,0.1078,0.1118,0.126,0.1344,0.1472,0.1583,0.165,0.1546,0.1157,0.0727,0.0081,-0.0287,-0.0402,-0.0476,-0.0542,-0.0562,-0.0246,-0.0238,-0.0317,-0.0317,-0.0317,-0.0317,-0.0316,-0.0316,0.0726,0.0818,0.087,0.105,0.1136,0.1282,0.1365,0.149,0.1597,0.1742,0.1785,0.1797,0.1453,0.0375,-0.0413,-0.0606,-0.0824,-0.0874,-0.0992,-0.0815,-0.0794,-0.0774,-0.0788,-0.0982,-0.0983,-0.1239,-0.1243,-0.1245]}],[{"header":{"parameterUnit":"m.s-1","parameterCategory":2,"la1":30.2991,"la2":30.254,"lo1":-89.0895,"lo2":-89.0444,"dy":0.0017,"dx":0.0017,"nx":28,"ny":28,"refTime":"2024-07-14T03:00:00:Z","depth":"2","parameterNumber":2,"parameterNumberName":"U-component_of_CURRENTS"},"data":[0,0,0,0,0,0,0,0,0,0,0,0,0,0,0,0,0,0,0,0,0,0,0,0,0,0,0,0,0,0,0,0,0,0,0,0,0,0,0,0,0,0,0,0,0,0,0,0,0,0,0,0,0,0,0,0,0,0,0.1546,0.1547,0,0.1611,0.1611,0.1612,0.163,0.1629,0.1629,0.1629,0.1675,0.1677,0.1678,0,0,0,0,0,0,0,0,0,0,0,0,0,0.144,0.1442,0.1546,0.1547,0.1548,0.161,0.1611,0.1612,0.163,0.1629,0.1629,0.1629,0.1675,0.1677,0.1679,0,0,0,0,0,0,0,0,0,0,0,0,0,0.1492,0.1442,0.1546,0.1565,0.1567,0.161,0.1611,0.1612,0.163,0.1629,0.1629,0.1628,0.1674,0.1677,0.1679,0.1701,0,0,0.1686,0.1687,0,0,0,0,0,0,0,0,0.1489,0.1496,0.1561,0.1564,0.1567,0.1612,0.1591,0.1641,0.163,0.1605,0.1629,0.1628,0.1654,0.1658,0.167,0.1703,0.1705,0.1686,0.1687,0.1688,0.1689,0,0,0,0,0,0,0,0.1486,0.1493,0.1571,0.1562,0.1566,0.1571,0.1578,0.1601,0.163,0.1607,0.1609,0.1618,0.1655,0.1667,0.1671,0.1706,0.1686,0.1688,0.1689,0.169,0.1787,0.1788,0,0,0,0,0,0,0.1481,0.149,0.1569,0.1573,0.1527,0.1573,0.1581,0.1597,0.163,0.1635,0.1618,0.1618,0.1664,0.1668,0.1672,0.172,0.1688,0.169,0.1692,0.1786,0.1787,0.1789,0,0,0,0,0,0,0.1478,0.1487,0.1566,0.1533,0.1543,0.1575,0.1594,0.1599,0.1607,0.1639,0.1643,0.162,0.1663,0.1669,0.1706,0.1721,0.1691,0.1693,0.1784,0.1786,0.1788,0.1804,0,0,0,0,0,0,0.1475,0.1486,0.149,0.1533,0.1545,0.1591,0.1595,0.16,0.1614,0.1614,0.1642,0.1646,0.1664,0.1703,0.1708,0.1724,0.1695,0.1783,0.1785,0.1787,0.1802,0.1806,0.1809,0,0,0,0,0,0.1471,0.1477,0.149,0.15,0.1552,0.1591,0.1598,0.1618,0.1614,0.1622,0.165,0.1645,0.1721,0.1706,0.1712,0.1729,0.1782,0.1785,0.1787,0.18,0.1805,0.1809,0,0,0,0,0,0,0.1425,0.1481,0.1496,0.1517,0.1552,0.1595,0.1601,0.1615,0.1642,0.1642,0.1663,0.1671,0.1712,0.1719,0.1701,0.1765,0.1749,0.1754,0.1757,0.1762,0.1766,0.178,0.1697,0,0,0,0,0,0.1421,0.1443,0.1495,0.1509,0.1527,0.1563,0.1577,0.1597,0.1629,0.164,0.166,0.1689,0.173,0.1743,0.1776,0.1806,0.1834,0.1821,0.1825,0.1828,0.1844,0.1899,0.191,0.1798,0.1798,0.1798,0,0,0.1403,0.1438,0.1448,0.1501,0.1528,0.1563,0.157,0.1597,0.1628,0.1641,0.1677,0.1705,0.1743,0.1787,0.1804,0.1792,0.1876,0.1831,0.1834,0.1849,0.1903,0.1914,0.1924,0.18,0.1799,0.1799,0,0,0.1388,0.1416,0.1434,0.1471,0.152,0.1551,0.1558,0.1604,0.1625,0.1669,0.1694,0.1739,0.1775,0.1822,0.1847,0.1892,0.1899,0.1886,0.1912,0.1964,0.1974,0.1983,0.2037,0.2051,0.1881,0.1881,0.1881,0,0.1363,0.1405,0.1442,0.1477,0.1508,0.1546,0.1578,0.1611,0.1662,0.1691,0.1681,0.1779,0.1803,0.1883,0.19,0.1903,0.1927,0.1887,0.1969,0.1979,0.1988,0.2041,0.2056,0.1883,0.1882,0.1882,0.1882,0,0.1376,0.1409,0.1422,0.1486,0.1521,0.1554,0.1614,0.1646,0.1671,0.1711,0.1784,0.183,0.1892,0.1901,0.1915,0.1991,0.1987,0.1971,0.1955,0.2,0.2053,0.2068,0.1884,0.1884,0.1883,0.1883,0,0,0.1326,0.1413,0.1419,0.1456,0.1533,0.1566,0.1623,0.1696,0.1739,0.1786,0.185,0.1924,0.1947,0.198,0.2002,0.2044,0.2127,0.2027,0.203,0.2078,0.2243,0.222,0.2234,0.2113,0.2115,0.2117,0.2256,0,0.1327,0.1386,0.1436,0.1496,0.1535,0.1599,0.1652,0.1722,0.1776,0.1843,0.191,0.1978,0.1977,0.201,0.2056,0.2115,0.2166,0.2091,0.2196,0.22,0.2171,0.2251,0.19,0.1992,0.2271,0.2273,0.2275,0,0.1333,0.1376,0.1429,0.152,0.1543,0.1582,0.1683,0.1741,0.1847,0.189,0.1971,0.202,0.2122,0.2094,0.2232,0.2178,0.2219,0.2252,0.2258,0.2244,0.2205,0.1993,0.2009,0.2301,0.2298,0.2297,0.2295,0,0.1297,0.1378,0.142,0.1451,0.1551,0.1588,0.1646,0.175,0.1809,0.1927,0.1978,0.2092,0.2162,0.2232,0.2318,0.2276,0.2453,0.2405,0.2429,0.2428,0.2158,0.2129,0.2503,0.2502,0.2502,0.2502,0.2501,0,0.1295,0.1332,0.1402,0.1429,0.1485,0.1566,0.1639,0.1713,0.1821,0.1903,0.1999,0.2084,0.2196,0.2306,0.2356,0.246,0.2496,0.2467,0.2473,0.2155,0.2126,0.2407,0.2395,0.2507,0.2506,0.2505,0.2504,0,0.1267,0.1311,0.1362,0.1446,0.1471,0.1515,0.1623,0.1688,0.1786,0.1898,0.194,0.2103,0.2261,0.2374,0.2515,0.2518,0.2609,0.263,0.2261,0.2222,0.2535,0.2522,0.2674,0.2674,0.2675,0.2675,0.2676,0,0.1263,0.1282,0.1355,0.1384,0.1422,0.149,0.1549,0.1658,0.1732,0.191,0.1969,0.2152,0.2277,0.2489,0.2487,0.2582,0.268,0.2355,0.2222,0.2568,0.2559,0.2544,0.253,0.1866,0.1859,0.1854,0.185,0,0.1251,0.1269,0.1311,0.1356,0.1408,0.1475,0.1563,0.1605,0.1751,0.185,0.2007,0.2115,0.2261,0.2209,0.2324,0.2324,0.2309,0.2258,0.2714,0.1892,0.1821,0.1807,0.1817,0.1804,0.1808,0.1812,0.1814,0.1816,0.1234,0.1252,0.1291,0.1333,0.1391,0.1452,0.1492,0.1592,0.1693,0.182,0.1956,0.2012,0.1946,0.1964,0.198,0.1974,0.2107,0.1986,0.1994,0.201,0.1907,0.1843,0.1811,0.1815,0.1819,0.1822,0.1825,0,0.1205,0.1231,0.1271,0.1317,0.1355,0.1405,0.1499,0.1527,0.1619,0.1715,0.1828,0.1581,0.1551,0.1586,0.1449,0.1482,0.1407,0.1488,0.1308,0.1348,0.1386,0.1248,0.0979,0.0978,0.0978,0.0978,0,0,0.119,0.1206,0.1223,0.1256,0.1298,0.1343,0.1384,0.1434,0.1474,0.1448,0.1408,0.1504,0.1453,0.1182,0.1127,0.1059,0.123,0.1032,0.1668,0.1488,0.1527,0.1587,0.141,0,0,0,0,0]},{"header":{"parameterUnit":"m.s-1","parameterCategory":2,"la1":30.2991,"la2":30.254,"lo1":-89.0895,"lo2":-89.0444,"dy":0.0017,"dx":0.0017,"nx":28,"ny":28,"refTime":"2024-07-14T03:00:00:Z","depth":"2","parameterNumber":3,"parameterNumberName":"V-component_of_CURRENTS"},"data":[0,0,0,0,0,0,0,0,0,0,0,0,0,0,0,0,0,0,0,0,0,0,0,0,0,0,0,0,0,0,0,0,0,0,0,0,0,0,0,0,0,0,0,0,0,0,0,0,0,0,0,0,0,0,0,0,0,0,0.0169,0.0169,0,0.0141,0.0141,0.0141,0.0118,0.0117,0.0117,0.0117,0.0003,0.0,-0.0002,0,0,0,0,0,0,0,0,0,0,0,0,0,0.023,0.0229,0.0169,0.0169,0.0168,0.0141,0.0141,0.0141,0.0118,0.0117,0.0117,0.0116,0.0004,0.0001,-0.0003,0,0,0,0,0,0,0,0,0,0,0,0,0,0.0204,0.0229,0.0169,0.0153,0.0151,0.0141,0.0141,0.0141,0.0118,0.0117,0.0117,0.0116,0.0005,0.0001,-0.0003,-0.0018,0,0,-0.0016,-0.0017,0,0,0,0,0,0,0,0,0.0205,0.0202,0.0156,0.0154,0.0152,0.0132,0.0121,0.0083,0.0118,0.0131,0.0117,0.0116,0.0038,0.0031,0.0029,-0.0024,-0.0029,-0.0016,-0.0018,-0.002,-0.0021,0,0,0,0,0,0,0,0.0207,0.0203,0.0159,0.0155,0.0153,0.0156,0.0152,0.0114,0.0087,0.013,0.0128,0.0124,0.0036,0.0033,0.0026,-0.003,-0.0016,-0.002,-0.0022,-0.0024,-0.0135,-0.0136,0,0,0,0,0,0,0.0208,0.0204,0.016,0.0158,0.0177,0.0156,0.0151,0.0139,0.0089,0.0081,0.0124,0.0123,0.0041,0.0031,0.0022,-0.0028,-0.002,-0.0024,-0.0026,-0.0135,-0.0136,-0.0136,0,0,0,0,0,0,0.0209,0.0204,0.0161,0.0181,0.0175,0.0155,0.0142,0.0139,0.0127,0.0085,0.0076,0.0114,0.004,0.0028,-0.0013,-0.0032,-0.0026,-0.003,-0.0134,-0.0135,-0.0136,-0.0111,0,0,0,0,0,0,0.0211,0.0204,0.0195,0.018,0.0174,0.015,0.0143,0.0139,0.0125,0.0123,0.0074,0.0063,0.0038,-0.0006,-0.0017,-0.0038,-0.0033,-0.0134,-0.0135,-0.0136,-0.0111,-0.0111,-0.0111,0,0,0,0,0,0.0213,0.0201,0.0195,0.0189,0.0162,0.015,0.0147,0.0132,0.0125,0.0119,0.009,0.0065,-0.002,-0.001,-0.0022,-0.0045,-0.0133,-0.0134,-0.0136,-0.0111,-0.0111,-0.0111,0,0,0,0,0,0,0.0218,0.0197,0.019,0.017,0.0159,0.0145,0.0135,0.0129,0.0104,0.0095,0.0061,0.0049,0.0006,-0.0021,-0.0009,-0.0079,-0.0083,-0.0087,-0.0061,-0.0061,-0.006,-0.0055,-0.0036,0,0,0,0,0,0.0216,0.0204,0.0187,0.0171,0.0162,0.0149,0.0141,0.0132,0.011,0.0099,0.0067,0.0029,-0.0006,-0.0034,-0.0067,-0.0107,-0.014,-0.0131,-0.013,-0.013,-0.0134,-0.0196,-0.0201,-0.014,-0.014,-0.014,0,0,0.0215,0.0201,0.0194,0.0172,0.0159,0.0149,0.0142,0.0126,0.0116,0.0087,0.0058,0.0029,-0.0015,-0.0054,-0.0077,-0.0082,-0.0164,-0.0131,-0.0131,-0.0135,-0.0198,-0.0204,-0.0209,-0.0141,-0.0141,-0.0141,0,0,0.021,0.019,0.018,0.017,0.015,0.0143,0.0137,0.0119,0.0106,0.008,0.0056,0.002,-0.0034,-0.0066,-0.0089,-0.0111,-0.0156,-0.0127,-0.0129,-0.0189,-0.0195,-0.02,-0.0244,-0.0253,-0.0132,-0.0132,-0.0132,0,0.0203,0.0192,0.0176,0.0164,0.0158,0.014,0.0133,0.0117,0.009,0.0077,0.0069,-0.0004,-0.004,-0.0089,-0.0094,-0.0111,-0.0148,-0.0125,-0.0189,-0.0195,-0.0201,-0.0245,-0.0255,-0.0131,-0.0131,-0.0131,-0.0131,0,0.0197,0.0186,0.0176,0.0158,0.015,0.0139,0.012,0.0104,0.0087,0.0073,0.0027,-0.0014,-0.0059,-0.0078,-0.0094,-0.0153,-0.0166,-0.0175,-0.0187,-0.0205,-0.025,-0.0262,-0.013,-0.013,-0.013,-0.0131,0,0,0.0181,0.0174,0.0168,0.017,0.0147,0.0143,0.012,0.0099,0.0085,0.0049,0.0025,-0.0034,-0.0055,-0.0083,-0.0113,-0.0165,-0.0233,-0.0188,-0.0192,-0.0227,-0.0362,-0.0276,-0.0281,-0.0258,-0.026,-0.0262,-0.0374,0,0.0177,0.0171,0.0165,0.0161,0.0158,0.014,0.0125,0.0103,0.0079,0.0051,-0.0,-0.0035,-0.0059,-0.0081,-0.0137,-0.0205,-0.0265,-0.0202,-0.0343,-0.0347,-0.0266,-0.0292,-0.0292,-0.0384,-0.0386,-0.0388,-0.0389,0,0.0171,0.0171,0.017,0.0173,0.0168,0.0162,0.014,0.0126,0.008,0.0059,0.0013,-0.0023,-0.0096,-0.0113,-0.0252,-0.0213,-0.029,-0.0345,-0.0351,-0.0288,-0.0283,-0.0369,-0.0405,-0.0409,-0.0407,-0.0406,-0.0405,0,0.0181,0.0176,0.0181,0.0179,0.0172,0.0166,0.0159,0.0125,0.0116,0.0064,0.005,-0.0038,-0.008,-0.0191,-0.0288,-0.0287,-0.0434,-0.045,-0.045,-0.0445,-0.048,-0.0473,-0.0565,-0.0565,-0.0565,-0.0564,-0.0564,0,0.0185,0.0187,0.0187,0.0189,0.0195,0.0182,0.0178,0.0158,0.0129,0.012,0.0057,0.004,-0.0105,-0.0192,-0.0295,-0.039,-0.0447,-0.0454,-0.047,-0.0468,-0.0459,-0.0507,-0.0499,-0.0569,-0.0568,-0.0567,-0.0566,0,0.0194,0.0193,0.0201,0.0199,0.0202,0.0204,0.0206,0.0201,0.0171,0.0157,0.0141,0.0075,-0.0019,-0.0149,-0.032,-0.0381,-0.0492,-0.0518,-0.0486,-0.0493,-0.0469,-0.0458,-0.0544,-0.0542,-0.0541,-0.0539,-0.0538,0,0.0204,0.0207,0.0213,0.0224,0.0225,0.0231,0.0237,0.0221,0.0219,0.0192,0.0188,0.0111,0.0111,-0.0074,-0.0231,-0.0386,-0.0448,-0.0493,-0.0481,-0.0461,-0.0469,-0.0461,-0.0453,-0.0539,-0.0538,-0.0537,-0.0536,0,0.0223,0.0216,0.0222,0.0241,0.0254,0.0275,0.0282,0.0296,0.0276,0.0302,0.0313,0.0326,0.0171,0.0034,-0.0153,-0.0254,-0.0459,-0.0472,-0.0509,-0.0503,-0.0454,-0.0461,-0.0455,-0.0528,-0.0529,-0.0529,-0.053,-0.053,0.0232,0.0237,0.0239,0.0257,0.0282,0.0318,0.0356,0.0388,0.0441,0.0521,0.0481,0.0507,0.0259,0.0075,-0.0118,-0.0337,-0.0331,-0.0445,-0.0451,-0.0457,-0.0395,-0.0341,-0.0384,-0.0384,-0.0384,-0.0384,-0.0384,0,0.0233,0.0237,0.0261,0.0287,0.0326,0.0335,0.0387,0.0462,0.0574,0.0647,0.0738,0.052,0.0396,0.0108,-0.0199,-0.0346,-0.0378,-0.0411,-0.0472,-0.0478,-0.0484,-0.0426,-0.0423,-0.0423,-0.0423,-0.0424,0,0,0.0235,0.0238,0.0248,0.0314,0.0352,0.0425,0.0476,0.0616,0.0687,0.0801,0.0794,0.0856,0.043,0.0185,-0.0069,-0.026,-0.0304,-0.0263,-0.0215,-0.0261,-0.0263,-0.049,-0.0404,0,0,0,0,0]}],[{"header":{"parameterUnit":"m.s-1","parameterCategory":2,"la1":30.2991,"la2":30.254,"lo1":-89.0895,"lo2":-89.0444,"dy":0.0017,"dx":0.0017,"nx":28,"ny":28,"refTime":"2024-07-14T03:00:00:Z","depth":"4","parameterNumber":2,"parameterNumberName":"U-component_of_CURRENTS"},"data":[0,0,0,0,0,0,0,0,0,0,0,0,0,0,0,0,0,0,0,0,0,0,0,0,0,0,0,0,0,0,0,0,0,0,0,0,0,0,0,0,0,0,0,0,0,0,0,0,0,0,0,0,0,0,0,0,0,0,0.0339,0.034,0,0.0374,0.0374,0.0375,0.0441,0.0442,0.0444,0.0445,0.0443,0.0442,0.0441,0,0,0,0,0,0,0,0,0,0,0,0,0,0.0317,0.0317,0.0339,0.034,0.034,0.0374,0.0374,0.0375,0.0441,0.0443,0.0444,0.0445,0.0444,0.0442,0.0441,0,0,0,0,0,0,0,0,0,0,0,0,0,0.0337,0.0317,0.0339,0.0377,0.038,0.0374,0.0374,0.0375,0.0441,0.0443,0.0444,0.0446,0.0444,0.0442,0.0441,0.0393,0,0,0.0435,0.0434,0,0,0,0,0,0,0,0,0.0336,0.0338,0.0371,0.0374,0.0378,0.0404,0.0366,0.0379,0.044,0.0419,0.0445,0.0447,0.0425,0.0425,0.0429,0.0393,0.0393,0.0435,0.0434,0.0433,0.0433,0,0,0,0,0,0,0,0.0335,0.0337,0.0354,0.0371,0.0375,0.0387,0.0392,0.0369,0.0411,0.0421,0.0425,0.0427,0.0427,0.0431,0.0429,0.0393,0.0435,0.0433,0.0432,0.0432,0.0376,0.0376,0,0,0,0,0,0,0.0327,0.0336,0.0353,0.0355,0.036,0.0386,0.0391,0.0395,0.0412,0.0417,0.0426,0.043,0.0433,0.0431,0.0429,0.0438,0.0433,0.0431,0.043,0.0377,0.0376,0.0376,0,0,0,0,0,0,0.0327,0.0329,0.0351,0.0345,0.0349,0.0384,0.0387,0.0394,0.0441,0.0416,0.0421,0.047,0.0434,0.0432,0.0434,0.0436,0.0431,0.0429,0.0377,0.0377,0.0376,0.0414,0,0,0,0,0,0,0.0326,0.0328,0.0355,0.0345,0.0349,0.0377,0.0386,0.0394,0.0436,0.0444,0.0454,0.0454,0.0435,0.0437,0.0432,0.0434,0.0428,0.0378,0.0377,0.0376,0.0414,0.0415,0.0416,0,0,0,0,0,0.0325,0.034,0.0356,0.0359,0.0376,0.0377,0.0382,0.0412,0.0437,0.0461,0.0461,0.0456,0.0428,0.0435,0.043,0.0431,0.0378,0.0377,0.0376,0.0413,0.0415,0.0416,0,0,0,0,0,0,0.0349,0.0347,0.0365,0.0383,0.0396,0.0389,0.042,0.0433,0.0454,0.0471,0.0453,0.0451,0.045,0.0433,0.0441,0.0411,0.0401,0.0399,0.043,0.0432,0.0433,0.046,0.0426,0,0,0,0,0,0.0364,0.0379,0.0377,0.04,0.0409,0.0423,0.0439,0.0455,0.0457,0.0473,0.0473,0.0462,0.0432,0.0432,0.0409,0.0397,0.0396,0.0392,0.0393,0.0395,0.0411,0.0393,0.0395,0.0373,0.0373,0.0373,0,0,0.0377,0.0383,0.0392,0.0408,0.0424,0.0434,0.044,0.0469,0.0481,0.0463,0.0493,0.0471,0.0429,0.0414,0.0411,0.0409,0.0404,0.0394,0.0395,0.0412,0.0392,0.0395,0.0397,0.0372,0.0372,0.0372,0,0,0.0399,0.0422,0.0441,0.045,0.0477,0.0475,0.0492,0.0504,0.0523,0.053,0.051,0.0497,0.0473,0.0439,0.0415,0.041,0.041,0.0402,0.0436,0.0417,0.0419,0.0421,0.0444,0.0448,0.0406,0.0406,0.0406,0,0.043,0.0441,0.0449,0.0468,0.0481,0.0496,0.0515,0.0521,0.0534,0.054,0.0551,0.0505,0.048,0.0435,0.0437,0.0414,0.0423,0.0434,0.0421,0.0423,0.0424,0.0447,0.045,0.0407,0.0407,0.0407,0.0407,0,0.0444,0.0473,0.0486,0.0511,0.0526,0.0545,0.0545,0.0568,0.0588,0.0584,0.0575,0.0535,0.0515,0.0489,0.0465,0.0449,0.046,0.0425,0.0423,0.0429,0.0452,0.0456,0.041,0.0409,0.0409,0.0408,0,0,0.0462,0.0493,0.0504,0.0528,0.0551,0.0561,0.0578,0.0588,0.0605,0.0607,0.0616,0.0562,0.0564,0.0537,0.0499,0.0479,0.0499,0.0472,0.047,0.0508,0.05,0.0474,0.0475,0.0466,0.0466,0.0466,0.0521,0,0.0484,0.0526,0.0527,0.057,0.0591,0.0602,0.0612,0.0624,0.0632,0.0643,0.0604,0.0599,0.0572,0.0572,0.0548,0.0504,0.0506,0.0491,0.0478,0.0478,0.0464,0.0476,0.0467,0.0523,0.0524,0.0524,0.0524,0,0.0491,0.0524,0.0567,0.0606,0.0617,0.064,0.0669,0.0678,0.0679,0.0689,0.0682,0.0664,0.0643,0.0617,0.0578,0.0576,0.0561,0.0526,0.0526,0.0493,0.0457,0.0508,0.053,0.0529,0.0529,0.0529,0.0528,0,0.0492,0.0546,0.0587,0.0599,0.0639,0.0666,0.069,0.0703,0.0713,0.0731,0.0751,0.0718,0.0723,0.0679,0.0629,0.0619,0.0584,0.0553,0.0519,0.0519,0.0511,0.0508,0.0542,0.0542,0.0541,0.0541,0.0541,0,0.0487,0.0524,0.06,0.0618,0.0666,0.0695,0.0731,0.0748,0.0772,0.0787,0.0789,0.0768,0.0742,0.0712,0.0658,0.0605,0.0615,0.0543,0.0526,0.0528,0.0526,0.0515,0.0511,0.0543,0.0543,0.0542,0.0542,0,0.0455,0.0508,0.056,0.0636,0.0663,0.0699,0.0759,0.0774,0.082,0.0843,0.0861,0.0837,0.0785,0.0747,0.0677,0.0655,0.0587,0.0566,0.061,0.0592,0.054,0.0538,0.0558,0.0558,0.0557,0.0557,0.0556,0,0.0431,0.0459,0.0566,0.0603,0.064,0.0701,0.073,0.0786,0.0804,0.0847,0.0845,0.0832,0.0804,0.0675,0.0637,0.0576,0.0548,0.0585,0.0537,0.0559,0.054,0.0538,0.0536,0.0555,0.0555,0.0555,0.0555,0,0.0377,0.0433,0.0475,0.0566,0.0622,0.066,0.0721,0.0711,0.0775,0.0862,0.08,0.0764,0.0708,0.0614,0.0601,0.0533,0.0596,0.0579,0.058,0.0535,0.0555,0.0537,0.0536,0.0553,0.0554,0.0554,0.0554,0,0.0336,0.0357,0.0437,0.0507,0.0583,0.0591,0.0609,0.063,0.0649,0.0728,0.069,0.0647,0.0671,0.0589,0.0535,0.0514,0.0498,0.052,0.0523,0.0525,0.0485,0.0505,0.0485,0,0,0,0,0,0.0291,0.0317,0.0371,0.044,0.0518,0.0563,0.0598,0.0613,0.0685,0.0636,0.0671,0.0602,0.0545,0.0487,0.0448,0.0507,0.0491,0.0468,0.0514,0.0544,0.0546,0.0501,0,0,0,0,0,0,0.0256,0.0308,0.0344,0.039,0.0427,0.0483,0.0487,0.0516,0.0478,0.0558,0.0474,0.063,0.0508,0.0556,0.0452,0.0457,0.0491,0.0487,0.0488,0.0543,0.0545,0.0546,0.0501,0,0,0,0,0]},{"header":{"parameterUnit":"m.s-1","parameterCategory":2,"la1":30.2991,"la2":30.254,"lo1":-89.0895,"lo2":-89.0444,"dy":0.0017,"dx":0.0017,"nx":28,"ny":28,"refTime":"2024-07-14T03:00:00:Z","depth":"4","parameterNumber":3,"parameterNumberName":"V-component_of_CURRENTS"},"data":[0,0,0,0,0,0,0,0,0,0,0,0,0,0,0,0,0,0,0,0,0,0,0,0,0,0,0,0,0,0,0,0,0,0,0,0,0,0,0,0,0,0,0,0,0,0,0,0,0,0,0,0,0,0,0,0,0,0,-0.0319,-0.032,0,-0.0391,-0.0392,-0.0393,-0.0495,-0.0496,-0.0498,-0.0499,-0.0586,-0.0586,-0.0587,0,0,0,0,0,0,0,0,0,0,0,0,0,-0.0271,-0.0272,-0.0319,-0.032,-0.0321,-0.0391,-0.0392,-0.0393,-0.0494,-0.0496,-0.0498,-0.05,-0.0585,-0.0586,-0.0587,0,0,0,0,0,0,0,0,0,0,0,0,0,-0.0314,-0.0272,-0.0319,-0.0378,-0.0384,-0.039,-0.0392,-0.0393,-0.0494,-0.0496,-0.0499,-0.0501,-0.0585,-0.0586,-0.0587,-0.0549,0,0,-0.0591,-0.0592,0,0,0,0,0,0,0,0,-0.0312,-0.0316,-0.0369,-0.0374,-0.0381,-0.0434,-0.0406,-0.0445,-0.0494,-0.0455,-0.0499,-0.0502,-0.0533,-0.0539,-0.055,-0.0553,-0.0556,-0.0591,-0.0592,-0.0593,-0.0593,0,0,0,0,0,0,0,-0.0309,-0.0314,-0.035,-0.0369,-0.0376,-0.0401,-0.041,-0.0414,-0.0482,-0.0458,-0.0465,-0.0469,-0.0537,-0.0549,-0.0553,-0.0558,-0.0591,-0.0593,-0.0593,-0.0594,-0.0641,-0.0641,0,0,0,0,0,0,-0.0293,-0.0311,-0.0348,-0.0352,-0.0349,-0.04,-0.041,-0.0417,-0.0482,-0.0493,-0.0467,-0.0473,-0.0545,-0.0551,-0.0556,-0.0595,-0.0593,-0.0594,-0.0595,-0.064,-0.0641,-0.0641,0,0,0,0,0,0,-0.0291,-0.0295,-0.0345,-0.0331,-0.0339,-0.0398,-0.0405,-0.0417,-0.0477,-0.0488,-0.0501,-0.052,-0.0547,-0.0554,-0.0603,-0.0596,-0.0594,-0.0596,-0.064,-0.064,-0.0641,-0.0621,0,0,0,0,0,0,-0.029,-0.0294,-0.0323,-0.033,-0.0339,-0.0375,-0.0403,-0.0416,-0.0471,-0.0482,-0.0536,-0.0544,-0.055,-0.0601,-0.0604,-0.0598,-0.0597,-0.0639,-0.064,-0.0641,-0.0621,-0.0621,-0.0621,0,0,0,0,0,-0.0288,-0.0298,-0.0324,-0.033,-0.0367,-0.0375,-0.0384,-0.0434,-0.0472,-0.0499,-0.0542,-0.0545,-0.0609,-0.0603,-0.0606,-0.06,-0.0639,-0.064,-0.0641,-0.0621,-0.0621,-0.0621,0,0,0,0,0,0,-0.0294,-0.0309,-0.0339,-0.0357,-0.0382,-0.0393,-0.0423,-0.0455,-0.051,-0.0536,-0.0556,-0.0566,-0.0603,-0.061,-0.0603,-0.0618,-0.0621,-0.0623,-0.0605,-0.0605,-0.0605,-0.0601,-0.0598,0,0,0,0,0,-0.0306,-0.0326,-0.0339,-0.0364,-0.0373,-0.0409,-0.0432,-0.0463,-0.0494,-0.0525,-0.0555,-0.0586,-0.0599,-0.0615,-0.0631,-0.0639,-0.0641,-0.0638,-0.0638,-0.0638,-0.0638,-0.0637,-0.0636,-0.0645,-0.0645,-0.0645,0,0,-0.0314,-0.0329,-0.0342,-0.0369,-0.0393,-0.0399,-0.0431,-0.0467,-0.0485,-0.052,-0.057,-0.0594,-0.0606,-0.0619,-0.0634,-0.063,-0.0637,-0.0639,-0.0638,-0.0639,-0.0638,-0.0637,-0.0636,-0.0646,-0.0646,-0.0645,0,0,-0.0316,-0.0354,-0.0366,-0.038,-0.0417,-0.0427,-0.0446,-0.0476,-0.0513,-0.0547,-0.0576,-0.0607,-0.0629,-0.0633,-0.0635,-0.0646,-0.0642,-0.0649,-0.0637,-0.0636,-0.0634,-0.0634,-0.0633,-0.0632,-0.0642,-0.0642,-0.0642,0,-0.0334,-0.0342,-0.0373,-0.038,-0.039,-0.0439,-0.0443,-0.0472,-0.0522,-0.0541,-0.0567,-0.0611,-0.0629,-0.0632,-0.0634,-0.0643,-0.0644,-0.0632,-0.0634,-0.0633,-0.0632,-0.0632,-0.0631,-0.0641,-0.0641,-0.0641,-0.0641,0,-0.0323,-0.0347,-0.035,-0.0373,-0.0392,-0.0403,-0.0429,-0.0466,-0.051,-0.0533,-0.0574,-0.0602,-0.062,-0.0627,-0.0632,-0.0631,-0.0634,-0.0637,-0.0629,-0.063,-0.063,-0.0629,-0.064,-0.064,-0.064,-0.064,0,0,-0.0309,-0.0338,-0.0342,-0.0353,-0.0389,-0.0393,-0.0422,-0.0446,-0.0464,-0.052,-0.0538,-0.0568,-0.0594,-0.0599,-0.0613,-0.0617,-0.0612,-0.0622,-0.0622,-0.0612,-0.0608,-0.0579,-0.0575,-0.0611,-0.0611,-0.0611,-0.0609,0,-0.0296,-0.0297,-0.0316,-0.0325,-0.0325,-0.0366,-0.0377,-0.0416,-0.0453,-0.0483,-0.0529,-0.0544,-0.0577,-0.0578,-0.0594,-0.0613,-0.061,-0.0612,-0.0617,-0.0617,-0.0583,-0.0574,-0.0611,-0.0609,-0.0609,-0.0608,-0.0608,0,-0.0272,-0.0277,-0.0273,-0.0295,-0.0299,-0.0304,-0.0331,-0.0347,-0.0397,-0.0424,-0.0463,-0.0501,-0.0529,-0.0548,-0.0585,-0.0584,-0.0591,-0.0607,-0.0607,-0.0585,-0.0587,-0.061,-0.0608,-0.0608,-0.0608,-0.0608,-0.0608,0,-0.0232,-0.0247,-0.0243,-0.0247,-0.0272,-0.0277,-0.0289,-0.033,-0.0333,-0.0376,-0.038,-0.0445,-0.0455,-0.0497,-0.0541,-0.0556,-0.0576,-0.0596,-0.0577,-0.0575,-0.0611,-0.0612,-0.06,-0.06,-0.06,-0.06,-0.06,0,-0.0196,-0.0199,-0.022,-0.0212,-0.02,-0.0235,-0.0225,-0.0248,-0.027,-0.0257,-0.0336,-0.0343,-0.0439,-0.0472,-0.0523,-0.0548,-0.0556,-0.0571,-0.0569,-0.0604,-0.0604,-0.061,-0.0612,-0.06,-0.06,-0.06,-0.06,0,-0.0158,-0.0174,-0.0166,-0.018,-0.0178,-0.0168,-0.0164,-0.0156,-0.0178,-0.0162,-0.0164,-0.0252,-0.0304,-0.0389,-0.0453,-0.0497,-0.0536,-0.0531,-0.0556,-0.0556,-0.0545,-0.0546,-0.0526,-0.0525,-0.0524,-0.0523,-0.0523,0,-0.0138,-0.0129,-0.0127,-0.0112,-0.0114,-0.01,-0.0085,-0.0102,-0.0079,-0.0102,-0.0083,-0.0143,-0.0203,-0.0294,-0.039,-0.0478,-0.0485,-0.0501,-0.0539,-0.0536,-0.0536,-0.0538,-0.054,-0.0521,-0.0521,-0.052,-0.052,0,-0.0098,-0.0102,-0.0091,-0.005,-0.0028,-0.0007,0.002,0.0039,0.0032,0.0026,-0.0008,-0.0088,-0.0149,-0.0276,-0.0329,-0.0398,-0.0502,-0.0492,-0.0495,-0.0531,-0.053,-0.0531,-0.0534,-0.0517,-0.0517,-0.0518,-0.0518,0,-0.0068,-0.0053,-0.003,0.0008,0.0044,0.007,0.0066,0.0083,0.0093,0.0075,0.0064,-0.0043,-0.0109,-0.023,-0.0287,-0.0349,-0.0378,-0.0405,-0.0413,-0.0418,-0.0395,-0.0377,-0.0309,0,0,0,0,0,-0.0031,-0.0009,0.0025,0.0061,0.0101,0.0121,0.0137,0.0128,0.0133,0.0128,0.0097,0.0036,-0.0094,-0.0178,-0.0233,-0.0273,-0.0386,-0.0339,-0.0419,-0.0498,-0.0502,-0.0492,0,0,0,0,0,0,-0.0013,0.0024,0.0036,0.011,0.0145,0.0183,0.0186,0.0173,0.0163,0.0148,0.0067,0.0046,-0.0093,-0.0045,-0.0223,-0.0245,-0.0301,-0.0397,-0.0398,-0.0496,-0.05,-0.0503,-0.0494,0,0,0,0,0]}]]